Weather History for HESN - December, 2013

Change the Weather History Date:

Saturday, December 7, 2013

  Actual Average Record
Temperature  
Mean Temperature 72 °F -  
Max Temperature 85 °F 72 °F 89 °F (2014)
Min Temperature 58 °F 51 °F 50 °F (2001)
Cooling Degree Days 6    
Growing Degree Days 22 (Base 50)    
Moisture  
Dew Point 41 °F    
Average Humidity 33    
Maximum Humidity 51    
Minimum Humidity 15    
Precipitation  
Precipitation 0.00 in 0.00 in - ()
Sea Level Pressure  
Sea Level Pressure 30.01 in    
Wind  
Wind Speed 6 mph ()    
Max Wind Speed 10 mph    
Max Gust Speed -    
Visibility 6.0 miles    
Events      
Averages and records for this station are not official NWS values.
T = Trace of Precipitation, MM = Missing Value Source: Averaged Metar Reports

Daily Weather History Graph

Daily Weather History Graph

Search for Another Location

Airport or City:

Trip Planner

Search our weather history database for the weather conditions in past years. The results will help you decide how hot, cold, wet, or windy it might be!

Date:

Astronomy

Dec. 07, 2013 Rise Set
Actual Time 6:18 AM EET 5:01 PM EET
Civil Twilight 5:54 AM EET 5:26 PM EET
Nautical Twilight 5:26 AM EET 5:54 PM EET
Astronomical Twilight 4:58 AM EET 6:22 PM EET
Moon 10:10 AM EET (12/7) 9:57 PM EET (12/7)
Length of Visible Light 11h 32m
Length of Day
10h 42m
Waxing Crescent, 26% of the Moon is Illuminated
Dec 7
Waxing Crescent
Dec 9
First Quarter
Dec 17
Full
Dec 25
Last Quarter
Jan 1
New

Hourly Weather History & Observations

Time (EET) Temp. Dew Point Humidity Pressure Visibility Wind Dir Wind Speed Gust Speed Precip Events Conditions
12:00 AM 60.8 °F 39.2 °F 45% 30.01 in - North 6.9 mph - N/A   Clear
1:00 AM 60.8 °F 39.2 °F 45% 29.98 in - North 6.9 mph - N/A   Clear
2:00 AM 62 °F 37 °F 28% 30.00 in 6 mi North 5.8 mph - -  
2:00 AM 62.6 °F 37.4 °F 39% 30.01 in - North 5.8 mph - N/A   Clear
3:00 AM 60.8 °F 39.2 °F 45% 30.01 in - North 6.9 mph - N/A   Clear
4:00 AM 60.8 °F 41.0 °F 48% 29.98 in - North 6.9 mph - N/A   Clear
5:00 AM 60 °F 40 °F 36% 30.01 in 6 mi North 5.8 mph - -  
5:00 AM 60.8 °F 41.0 °F 48% 30.01 in - North 5.8 mph - N/A   Clear
6:00 AM 59.0 °F 41.0 °F 51% 30.01 in - NNW 6.9 mph - N/A   Clear
7:00 AM 59.0 °F 41.0 °F 51% 30.04 in - North 6.9 mph - N/A   Clear
8:00 AM 62 °F 41 °F 34% 30.05 in 6 mi North 4.6 mph - -  
8:00 AM 62.6 °F 41.0 °F 45% 30.06 in - North 4.6 mph - N/A   Clear
9:00 AM 66.2 °F 42.8 °F 43% 30.06 in - North 6.9 mph - N/A   Clear
10:00 AM 71.6 °F 46.4 °F 41% 30.06 in - North 8.1 mph - N/A   Clear
11:00 AM 75 °F 48 °F 27% 30.03 in 6 mi North 6.9 mph - -  
11:00 AM 75.2 °F 48.2 °F 38% 30.04 in - North 6.9 mph - N/A   Clear
12:00 PM 78.8 °F 48.2 °F 34% 30.01 in - North 9.2 mph - N/A   Clear
1:00 PM 82.4 °F 48.2 °F 30% 29.98 in - North 9.2 mph - N/A   Clear
2:00 PM 84 °F 47 °F 18% 29.94 in 6 mi North 10.4 mph - -  
2:00 PM 84.2 °F 48.2 °F 29% 29.95 in - North 10.4 mph - N/A   Clear
3:00 PM 84.2 °F 46.4 °F 27% 29.95 in - North 10.4 mph - N/A   Clear
4:00 PM 84.2 °F 46.4 °F 27% 29.95 in - North 5.8 mph - N/A   Clear
5:00 PM 82 °F 44 °F 17% 29.94 in 6 mi North 9.2 mph - -   Clear
5:00 PM 82.4 °F 44.6 °F 26% 29.98 in - North 9.2 mph - N/A   Clear
6:00 PM 78.8 °F 41.0 °F 26% 29.98 in - North 9.2 mph - N/A   Clear
7:00 PM 75.2 °F 37.4 °F 25% 30.01 in - North 9.2 mph - N/A   Clear
8:00 PM 73 °F 35 °F 15% 30.01 in 6 mi North 6.9 mph - -  
8:00 PM 73.4 °F 35.6 °F 25% 30.01 in - North 6.9 mph - N/A   Clear
9:00 PM 71.6 °F 33.8 °F 25% 30.04 in - North 8.1 mph - N/A   Clear
10:00 PM 69.8 °F 35.6 °F 28% 30.04 in - North 6.9 mph - N/A   Clear
11:00 PM 69 °F 34 °F 17% 30.02 in 6 mi North 6.9 mph - -  
11:00 PM 69.8 °F 33.8 °F 27% 30.04 in - North 6.9 mph - N/A   Clear